Temperature
8 8 8 7 7 6 6 6 6 5 5 5 5 5 5 5 5 5 5 6 6 6 6 7 8 8 9 9 9 9 9 9 9 10 11 13 14 14 14 13 13 14 14
9 8 8 7 7 6 6 6 6 5 5 5 5 4 4 4 4 4 4 4 4 5 5 5 5 6 7 8 8 9 8 8 8 9 10 12 12 13 13 13 13 13 13
9 9 8 7 7 7 6 6 6 5 5 5 4 4 4 4 4 4 3 3 3 3 4 4 4 4 5 5 6 7 7 8 7 8 10 11 11 12 12 13 13 13 13
9 9 9 8 7 7 7 6 6 5 5 4 4 4 3 3 3 3 3 3 3 3 3 3 3 3 3 4 4 4 5 6 6 8 9 9 10 10 11 11 12 12 13
9 9 9 8 8 8 7 7 6 5 4 4 3 3 3 3 3 3 2 2 2 2 2 2 2 2 2 3 3 3 3 4 4 6 7 8 8 9 9 9 9 10 11
9 9 8 8 8 8 7 6 6 5 4 4 3 3 3 3 2 2 2 2 2 2 2 2 2 2 2 2 2 2 2 3 3 5 5 6 7 7 7 7 7 7 8
9 9 8 8 8 7 7 6 5 5 4 3 3 3 3 3 2 2 2 2 2 2 2 2 2 2 2 1 1 2 2 2 3 4 4 4 5 6 5 5 5 5 6
8 8 8 8 8 7 7 6 5 5 4 4 4 4 4 4 3 3 3 3 3 3 3 3 2 2 2 2 2 2 1 1 2 3 3 3 4 4 4 3 3 4 5
8 8 8 8 7 7 7 7 6 5 5 5 5 5 5 5 4 4 4 4 3 3 3 2 2 2 2 2 2 2 1 1 2 2 2 2 2 1 1 2 2 3 3
8 8 7 7 7 7 7 7 6 6 6 5 5 4 4 4 4 4 4 3 3 3 2 2 1 1 2 2 2 1 1 1 1 1 1 1 -1 -1 -1 0 1 2 2
7 7 7 7 7 7 7 6 6 6 5 5 4 4 4 4 4 3 3 2 2 1 1 1 1 1 1 1 1 0 -0 -0 -0 -1 -1 -2 -3 -3 -2 -2 -1 0 1
8 7 7 7 7 7 6 6 6 5 5 4 4 4 3 3 3 2 2 1 1 0 -0 -1 -1 -1 -2 -2 -2 -2 -2 -2 -2 -3 -3 -4 -5 -4 -4 -3 -2 -1 0
8 7 7 7 7 6 6 6 5 5 4 4 4 3 3 2 2 1 1 0 -1 -1 -2 -3 -3 -4 -4 -4 -4 -4 -4 -4 -4 -4 -4 -5 -6 -6 -5 -4 -3 -2 -1
7 7 7 7 6 6 6 5 5 5 4 3 3 3 2 2 1 0 -1 -1 -2 -3 -4 -5 -6 -6 -6 -6 -6 -6 -6 -6 -6 -6 -6 -6 -7 -7 -6 -6 -5 -4 -3
7 7 7 7 6 6 5 5 5 4 4 3 2 2 1 1 -0 -1 -2 -3 -4 -4 -5 -6 -6 -6 -6 -6 -7 -7 -6 -6 -6 -7 -7 -7 -8 -8 -8 -7 -6 -5 -4
7 7 7 7 6 6 5 5 4 4 3 2 2 1 0 -0 -1 -2 -3 -3 -4 -5 -5 -6 -6 -7 -7 -7 -7 -7 -7 -7 -7 -7 -8 -8 -8 -9 -9 -8 -7 -6 -5
8 7 7 7 6 5 5 4 4 3 3 2 1 0 -0 -1 -2 -2 -3 -3 -4 -5 -5 -6 -6 -7 -7 -7 -8 -7 -7 -7 -8 -8 -8 -8 -9 -9 -10 -9 -9 -8 -6
8 7 7 7 6 5 5 4 4 3 2 2 1 0 -1 -1 -2 -2 -3 -3 -4 -5 -6 -6 -7 -7 -8 -8 -8 -8 -8 -8 -8 -8 -8 -9 -9 -10 -10 -10 -10 -9 -7
8 7 7 7 6 5 5 4 4 3 2 1 1 0 -1 -1 -2 -3 -3 -3 -4 -5 -6 -7 -7 -8 -8 -9 -9 -9 -8 -8 -8 -8 -9 -9 -10 -10 -10 -11 -10 -10 -9
8 7 7 6 6 5 5 4 3 3 2 1 1 0 -1 -1 -2 -3 -3 -3 -4 -5 -6 -7 -8 -8 -9 -9 -10 -10 -9 -8 -8 -9 -9 -9 -10 -10 -10 -11 -11 -10 -9
8 7 7 7 6 5 5 4 3 3 2 1 1 0 -1 -1 -2 -3 -3 -4 -5 -6 -7 -8 -9 -9 -9 -10 -10 -10 -10 -9 -9 -9 -10 -10 -10 -10 -11 -11 -11 -11 -10
9 8 8 7 6 6 5 4 3 3 2 1 1 0 -1 -2 -2 -3 -3 -4 -5 -6 -7 -8 -9 -10 -10 -10 -11 -11 -11 -11 -10 -9 -10 -10 -10 -10 -11 -11 -11 -11 -10
10 9 9 8 7 6 5 4 3 3 2 1 1 -0 -1 -2 -2 -3 -4 -5 -6 -7 -8 -9 -9 -10 -11 -11 -11 -11 -12 -12 -12 -11 -10 -10 -11 -11 -10 -10 -10 -10 -10
12 10 9 8 7 6 5 4 3 3 2 1 1 -0 -1 -2 -2 -3 -4 -5 -6 -7 -8 -9 -10 -10 -11 -11 -11 -11 -11 -12 -12 -12 -11 -11 -11 -11 -11 -11 -10 -10 -9
12 11 10 8 7 6 4 4 3 3 2 1 0 -0 -1 -2 -3 -4 -4 -5 -6 -7 -8 -9 -10 -10 -11 -11 -11 -11 -11 -11 -12 -13 -13 -12 -11 -11 -11 -11 -10 -10 -9
12 11 10 8 7 6 4 3 3 3 2 1 0 -0 -1 -2 -3 -4 -5 -5 -6 -7 -8 -9 -10 -10 -11 -11 -11 -11 -11 -12 -12 -12 -13 -13 -13 -12 -11 -11 -10 -10 -9
Wind_Speed
1 6 6 7 9 11 12 13 15 16 17 18 19 20 20 21 21 22 23 24 24 25 25 26 27 28 28 28 28 28 27 27 27 27 27 28 30 29 28 27 27 22 27
8 7 6 8 9 10 12 13 14 15 16 17 18 19 19 19 20 20 21 22 23 24 24 25 26 26 27 28 28 29 28 27 27 26 26 27 29 29 28 26 26 23 26
12 8 4 8 9 10 11 13 13 14 15 16 17 18 18 18 19 20 20 21 22 22 23 24 25 25 26 27 27 28 28 28 28 27 25 23 25 27 28 26 25 25 25
13 8 4 8 9 10 11 12 13 14 14 15 16 17 18 18 19 19 20 21 21 22 23 23 24 24 25 26 27 27 28 28 28 27 23 23 23 26 27 26 25 24 24
13 8 6 9 8 9 10 11 11 12 13 14 16 17 17 18 19 19 20 21 21 22 23 23 24 24 25 26 27 27 28 28 28 26 25 24 22 25 26 26 25 24 23
12 8 5 8 7 8 9 9 10 11 12 13 15 16 17 18 18 19 20 21 22 22 23 24 24 25 25 26 27 27 28 29 25 25 26 25 24 26 27 26 26 25 23
11 7 4 7 6 6 6 7 8 10 12 13 14 16 17 18 18 19 20 21 22 24 24 25 25 26 26 26 27 27 28 28 25 25 25 25 27 30 29 28 27 25 24
13 9 8 7 6 5 5 6 7 9 11 13 14 16 17 18 19 20 21 23 24 25 25 26 26 27 27 27 27 27 27 26 25 25 25 24 27 30 30 29 28 27 25
14 12 10 8 6 5 4 6 7 9 11 12 14 15 17 19 19 21 23 24 25 25 26 26 27 27 28 27 28 28 27 26 25 23 23 23 26 29 30 30 30 28 27
13 13 11 8 6 5 4 6 7 8 10 11 13 14 16 18 19 22 24 24 25 25 25 25 26 27 27 27 28 28 27 24 24 22 21 23 29 31 31 31 31 30 29
8 10 11 9 6 4 4 6 7 7 9 10 11 12 14 18 19 20 22 23 23 23 23 23 25 25 25 25 27 27 24 22 23 21 20 26 31 31 31 32 32 32 31
9 7 11 10 7 5 4 4 5 5 7 8 9 10 12 15 17 17 19 20 20 20 21 21 23 22 22 21 23 24 21 23 21 21 22 30 31 31 32 32 32 33 33
10 9 10 12 9 6 3 2 3 4 5 6 6 7 9 12 15 16 17 17 18 17 18 18 19 18 18 18 18 19 21 21 20 21 23 30 31 33 33 34 34 34 34
10 10 10 14 11 7 4 2 2 2 2 3 3 4 7 9 10 11 12 13 13 13 13 14 14 16 16 16 17 17 20 20 21 21 23 30 33 33 33 34 34 35 35
12 11 9 14 12 9 6 4 3 2 1 0 0 2 4 5 5 5 6 8 10 10 10 12 13 13 13 14 16 18 19 21 21 22 23 30 33 33 33 34 34 35 35
13 12 9 13 14 11 8 6 5 4 3 3 2 3 3 3 1 1 4 6 8 9 11 12 13 11 11 12 13 17 19 19 19 22 24 26 30 32 33 33 34 34 35
14 13 11 13 15 13 10 7 6 5 4 4 5 5 5 4 3 2 3 6 8 10 11 13 12 11 11 12 11 16 17 17 19 22 23 23 24 28 31 31 32 33 35
14 14 13 13 14 13 11 8 6 5 5 5 6 7 7 5 4 4 4 6 8 10 10 10 7 5 6 6 7 10 14 16 19 21 21 22 23 23 26 30 32 34 34
16 16 14 10 12 13 12 9 6 5 5 5 7 8 8 7 6 5 5 7 8 9 9 9 7 5 6 8 8 8 9 12 16 19 19 22 22 23 23 28 31 32 33
16 15 14 12 11 12 10 7 4 4 5 5 7 9 9 8 7 6 6 7 8 6 5 5 6 6 6 7 10 10 9 11 13 12 16 19 21 23 24 24 24 26 30
15 15 16 13 11 8 5 4 3 3 3 5 8 9 10 8 7 6 6 7 7 5 5 6 5 7 5 5 6 10 10 9 9 8 11 14 17 22 22 23 22 21 21
19 18 17 16 14 12 7 4 3 3 3 5 6 8 9 8 7 6 6 6 7 5 5 6 5 4 5 5 5 9 8 10 9 13 8 10 11 16 17 21 21 21 20
20 21 19 17 15 12 9 5 3 3 1 2 3 4 7 7 7 7 7 7 7 5 5 6 7 6 6 6 4 4 7 8 14 11 13 11 9 11 11 16 19 20 20
21 18 17 17 15 13 11 9 8 6 6 6 4 4 6 7 7 8 8 8 8 7 5 6 7 6 6 7 6 5 6 7 8 11 12 9 11 13 12 13 15 18 19
17 17 16 16 15 13 12 12 9 7 6 4 4 5 5 6 8 8 9 9 8 8 8 8 7 7 5 7 7 6 7 7 7 7 14 18 16 12 11 12 11 13 17
14 15 15 17 16 14 13 12 11 10 9 7 6 6 5 4 6 9 10 10 10 10 9 9 8 8 7 8 8 7 7 7 8 7 10 15 17 16 15 13 11 10 13
Wind_Direction
57 49 45 50 52 50 48 45 42 38 35 32 28 25 24 22 21 20 19 17 15 13 11 10 8 6 5 5 4 3 2 2 2 2 1 358 353 349 349 350 350 348 348
113 77 58 67 61 56 52 47 43 39 35 32 28 25 23 22 21 19 18 16 14 12 10 9 7 5 4 2 0 359 358 358 359 0 1 356 349 345 345 345 345 343 344
108 93 64 78 70 62 55 50 44 39 34 31 27 23 22 21 20 19 18 16 13 12 10 9 6 4 3 1 358 356 355 355 356 358 359 353 347 341 339 340 340 340 341
113 106 92 90 77 66 58 51 44 37 33 30 26 22 21 21 20 19 18 15 13 12 11 9 7 5 4 1 358 356 355 354 353 357 356 350 345 338 335 335 336 336 337
117 113 106 98 84 71 59 52 45 37 32 30 26 23 22 21 19 20 18 15 13 13 11 10 8 7 5 2 360 358 357 355 355 360 355 348 344 335 332 331 331 330 332
127 125 113 103 92 79 64 52 46 38 32 30 27 25 24 21 20 22 17 16 14 13 12 10 10 8 6 5 3 359 356 353 3 2 352 345 341 331 329 328 326 324 325
142 133 114 104 91 83 73 54 47 39 33 32 28 27 26 22 20 23 18 16 15 13 12 10 9 7 7 5 2 358 355 352 3 355 347 341 334 328 326 324 322 319 318
139 122 95 96 82 74 67 57 45 41 35 33 29 29 27 22 21 22 17 16 14 12 10 8 6 5 4 2 360 357 354 356 357 347 339 338 330 325 323 321 318 315 311
138 127 112 99 84 65 49 52 44 41 35 32 29 29 28 23 21 21 17 14 12 9 8 5 4 3 1 359 357 355 355 356 352 341 338 334 326 324 321 318 315 311 308
142 138 131 119 101 76 58 47 43 38 33 31 26 27 27 25 24 21 15 12 9 6 4 2 1 360 358 356 354 353 355 353 344 342 338 329 326 323 319 315 312 309 306
154 154 148 137 122 98 83 57 46 41 34 34 29 26 30 31 28 22 13 10 6 3 1 359 357 357 356 353 351 351 352 346 343 341 334 327 324 319 316 312 308 305 303
173 178 165 151 143 118 93 65 56 58 48 40 36 37 38 36 30 23 14 8 4 2 360 356 355 354 352 348 347 348 346 344 341 335 330 325 321 319 315 311 307 303 299
177 177 173 162 155 144 124 91 69 67 51 38 35 38 40 39 32 25 16 7 2 358 357 352 349 344 341 340 341 341 341 339 333 329 325 323 321 318 313 309 306 302 298
176 179 176 167 162 163 161 163 141 111 64 35 34 43 47 44 34 23 11 359 351 346 341 338 332 330 332 335 336 335 333 330 326 324 321 322 319 315 312 308 304 301 297
181 179 176 168 167 170 174 189 182 183 187 289 60 81 74 66 43 18 354 341 335 332 328 325 324 324 327 330 331 332 326 322 319 319 319 318 317 314 310 307 304 300 296
183 179 173 170 171 170 176 193 207 212 221 221 204 169 141 117 101 331 316 319 322 325 325 325 320 321 321 322 323 323 318 314 314 315 315 314 314 313 310 306 302 300 297
184 177 174 173 171 171 178 197 209 220 220 216 209 194 184 183 194 230 276 300 313 324 327 326 322 326 327 327 320 317 314 311 310 310 310 308 308 310 308 306 303 300 298
180 178 180 176 171 173 180 194 209 216 212 215 214 209 204 205 213 233 267 290 309 320 323 319 317 318 314 312 311 311 311 310 308 306 303 303 304 303 303 303 302 299 299
182 181 181 172 171 175 180 186 197 204 208 218 224 222 216 215 225 243 268 285 302 310 315 320 329 310 310 315 313 308 309 307 302 301 298 298 297 297 298 299 299 300 299
183 181 179 174 173 171 169 169 175 195 214 231 237 230 220 221 233 253 269 280 294 299 302 302 302 302 295 299 313 314 305 300 297 291 290 295 295 296 296 295 295 295 297
182 182 181 178 176 165 158 166 178 206 220 241 247 230 219 225 242 261 273 282 287 282 283 292 295 300 298 296 306 315 308 296 293 291 289 289 292 294 291 293 293 290 293
188 187 185 184 180 179 174 164 167 171 199 227 232 216 222 233 250 260 264 270 279 279 286 292 294 289 294 313 305 318 315 313 313 315 293 293 292 293 294 295 293 289 288
195 192 190 187 183 181 170 152 145 141 202 219 217 224 235 244 254 261 271 273 275 267 271 281 285 277 291 298 267 274 303 308 317 307 308 301 295 295 294 295 291 290 290
200 192 188 183 182 179 170 170 170 184 201 214 210 218 242 250 254 264 271 274 271 267 263 276 293 277 280 294 295 252 250 275 298 308 312 303 300 303 301 299 295 293 289
195 189 185 181 182 179 177 178 178 192 203 211 217 231 239 247 254 266 270 269 264 264 267 271 277 274 267 274 285 285 283 281 263 286 306 312 313 308 307 301 294 292 293
185 184 182 182 185 181 181 182 185 192 199 207 219 229 235 240 254 262 266 262 262 264 267 269 266 265 265 268 277 276 276 278 290 289 296 304 307 308 308 303 298 292 297
Height
1613 1614 1613 1612 1611 1610 1608 1606 1604 1601 1599 1597 1595 1593 1590 1588 1585 1583 1580 1577 1574 1571 1569 1566 1564 1561 1559 1557 1555 1552 1551 1549 1547 1546 1545 1545 1546 1546 1545 1545 1545 1544 1544
1612 1612 1612 1611 1610 1609 1607 1605 1603 1601 1599 1597 1594 1592 1590 1588 1585 1583 1580 1577 1574 1571 1569 1566 1563 1560 1558 1556 1554 1551 1549 1547 1545 1543 1542 1542 1542 1542 1542 1542 1542 1542 1542
1610 1610 1610 1610 1608 1607 1606 1604 1602 1600 1598 1596 1594 1592 1590 1588 1585 1583 1580 1577 1574 1571 1568 1565 1563 1560 1557 1554 1552 1550 1548 1546 1543 1541 1539 1538 1538 1539 1539 1539 1539 1539 1539
1608 1609 1608 1608 1607 1606 1605 1603 1601 1599 1598 1596 1593 1591 1589 1587 1585 1582 1579 1576 1573 1571 1568 1565 1562 1559 1556 1553 1551 1548 1546 1543 1541 1538 1536 1535 1534 1535 1535 1535 1535 1535 1535
1607 1607 1607 1606 1606 1605 1603 1601 1600 1598 1596 1595 1592 1590 1588 1586 1583 1580 1577 1575 1572 1570 1567 1564 1561 1558 1555 1552 1549 1547 1544 1540 1537 1534 1534 1532 1531 1531 1531 1531 1531 1530 1530
1606 1606 1606 1605 1605 1604 1602 1600 1598 1597 1595 1593 1591 1588 1586 1583 1581 1578 1575 1573 1571 1568 1565 1562 1560 1557 1553 1550 1547 1544 1541 1538 1533 1530 1530 1529 1528 1528 1527 1527 1526 1526 1525
1604 1604 1604 1604 1603 1602 1600 1599 1597 1595 1593 1591 1589 1586 1583 1581 1579 1576 1573 1571 1569 1566 1563 1561 1558 1555 1551 1548 1544 1541 1538 1534 1530 1527 1526 1525 1525 1525 1524 1523 1522 1522 1521
1603 1603 1603 1602 1602 1600 1599 1597 1595 1593 1591 1589 1586 1584 1581 1579 1577 1574 1572 1570 1567 1564 1562 1559 1556 1553 1549 1545 1542 1538 1535 1531 1526 1525 1522 1520 1520 1520 1520 1519 1518 1517 1517
1601 1601 1601 1601 1600 1599 1597 1596 1594 1592 1589 1587 1585 1582 1580 1577 1575 1573 1571 1568 1566 1563 1560 1557 1554 1551 1547 1544 1540 1536 1531 1527 1523 1521 1518 1516 1516 1515 1515 1514 1513 1512 1511
1598 1599 1599 1599 1598 1597 1596 1594 1592 1590 1588 1586 1583 1581 1578 1576 1574 1572 1569 1567 1564 1561 1558 1555 1551 1548 1544 1541 1537 1533 1528 1524 1520 1516 1513 1512 1511 1510 1509 1508 1507 1506 1505
1595 1596 1596 1596 1596 1595 1594 1592 1591 1588 1586 1584 1581 1579 1576 1574 1572 1570 1567 1565 1562 1558 1555 1551 1547 1544 1540 1536 1533 1529 1524 1520 1517 1513 1509 1507 1506 1504 1503 1502 1501 1499 1498
1590 1593 1594 1594 1594 1593 1592 1590 1589 1586 1584 1581 1579 1576 1574 1572 1570 1567 1565 1561 1558 1554 1551 1547 1543 1539 1535 1531 1528 1524 1520 1516 1513 1509 1505 1503 1501 1499 1497 1496 1494 1492 1491
1588 1589 1591 1592 1591 1590 1589 1588 1586 1584 1581 1579 1576 1574 1572 1569 1567 1564 1561 1558 1554 1550 1546 1542 1538 1534 1530 1526 1523 1519 1516 1513 1509 1505 1501 1498 1496 1493 1491 1488 1486 1485 1483
1583 1586 1587 1589 1589 1588 1586 1585 1583 1581 1578 1576 1573 1571 1569 1567 1564 1560 1557 1553 1548 1544 1540 1536 1532 1529 1525 1522 1518 1515 1512 1509 1505 1501 1497 1493 1490 1487 1484 1481 1479 1477 1475
1580 1581 1583 1585 1585 1585 1583 1582 1580 1578 1575 1572 1570 1567 1565 1563 1559 1556 1552 1547 1543 1539 1535 1531 1528 1524 1521 1517 1514 1511 1508 1505 1501 1497 1492 1488 1484 1480 1477 1474 1471 1469 1467
1576 1578 1579 1581 1581 1581 1580 1578 1576 1574 1572 1569 1566 1563 1561 1558 1555 1551 1547 1543 1539 1535 1531 1528 1524 1520 1517 1513 1510 1507 1504 1501 1497 1492 1488 1482 1477 1473 1469 1466 1464 1461 1458
1572 1574 1575 1576 1577 1577 1576 1574 1572 1570 1568 1565 1562 1559 1557 1554 1550 1547 1543 1540 1536 1532 1528 1524 1521 1517 1514 1510 1506 1503 1500 1496 1492 1488 1483 1477 1472 1466 1462 1459 1456 1453 1450
1568 1569 1570 1571 1572 1572 1571 1570 1568 1566 1564 1561 1558 1555 1553 1550 1547 1543 1540 1536 1532 1528 1524 1520 1517 1513 1510 1506 1502 1499 1496 1492 1488 1483 1478 1473 1467 1461 1456 1452 1449 1445 1442
1563 1564 1565 1565 1567 1567 1567 1566 1564 1562 1559 1557 1554 1552 1549 1546 1543 1540 1536 1533 1529 1525 1521 1517 1514 1510 1507 1503 1498 1495 1491 1487 1482 1478 1473 1468 1462 1457 1450 1445 1441 1437 1433
1558 1558 1559 1560 1561 1562 1562 1561 1559 1557 1555 1552 1550 1547 1545 1542 1539 1536 1533 1529 1525 1521 1518 1514 1511 1508 1504 1500 1495 1491 1486 1482 1477 1472 1467 1462 1457 1451 1445 1439 1433 1429 1426
1551 1552 1552 1553 1554 1555 1556 1556 1554 1553 1550 1548 1545 1543 1541 1538 1536 1532 1529 1525 1521 1517 1514 1511 1507 1503 1501 1497 1492 1485 1481 1478 1473 1467 1462 1457 1451 1446 1440 1433 1427 1423 1418
1543 1544 1545 1545 1547 1549 1550 1550 1549 1548 1546 1544 1541 1539 1537 1534 1531 1528 1525 1521 1517 1514 1510 1507 1504 1500 1497 1495 1490 1483 1476 1472 1467 1462 1457 1451 1446 1441 1434 1428 1422 1417 1413
1535 1535 1536 1538 1540 1542 1544 1544 1543 1542 1540 1539 1537 1535 1532 1530 1527 1524 1520 1517 1513 1510 1506 1503 1500 1496 1492 1490 1488 1484 1478 1469 1463 1456 1451 1445 1441 1435 1429 1423 1417 1412 1408
1527 1529 1530 1532 1534 1536 1537 1537 1537 1536 1535 1534 1532 1530 1528 1525 1522 1519 1516 1512 1509 1505 1502 1499 1496 1493 1489 1485 1483 1480 1476 1470 1463 1453 1445 1440 1435 1430 1425 1418 1412 1407 1403
1522 1522 1524 1525 1526 1528 1530 1531 1531 1530 1529 1528 1526 1525 1523 1520 1517 1514 1511 1507 1504 1500 1497 1494 1491 1488 1485 1481 1477 1474 1470 1466 1461 1455 1444 1434 1427 1423 1420 1415 1408 1403 1398
1515 1515 1516 1517 1519 1521 1522 1524 1524 1524 1523 1522 1520 1519 1517 1515 1513 1509 1506 1503 1499 1496 1492 1489 1486 1482 1479 1475 1472 1468 1464 1460 1455 1450 1442 1433 1424 1416 1413 1410 1405 1400 1395